Estación de San José
Ultimos registro cada 15 minutos 78
| N° | Estación | Fecha / Hora | Temperatura | Humedad | Lluvia | Velocidad | Dirección | Radiación | Presion |
| 78 | San José | 07-05-2026 19:15 | 10,7 | 79 | 0 | 0 | 191 | 0 | 1027,4 |
| 77 | San José | 07-05-2026 19:00 | 10,9 | 79 | 0 | 0 | 190 | 0 | 1027,5 |
| 76 | San José | 07-05-2026 18:45 | 11,1 | 79 | 0 | 0 | 210 | 0 | 1027,5 |
| 75 | San José | 07-05-2026 18:30 | 11,2 | 78 | 0 | 0 | 210 | 0 | 1027,1 |
| 74 | San José | 07-05-2026 18:15 | 11,4 | 77 | 0 | 0 | 210 | 0 | 1027,2 |
| 73 | San José | 07-05-2026 18:00 | 11,7 | 76 | 0 | 0 | 189 | 0 | 1027,6 |
| 72 | San José | 07-05-2026 17:45 | 11,9 | 76 | 0 | 0 | 220 | 0 | 1027,5 |
| 71 | San José | 07-05-2026 17:30 | 12,2 | 76 | 0 | 0 | 215 | 16 | 1027,5 |
| 70 | San José | 07-05-2026 17:15 | 12,3 | 74 | 0 | 0 | 239 | 25 | 1027,3 |
| 69 | San José | 07-05-2026 17:00 | 12,7 | 72 | 0 | 0 | 242 | 32 | 1027,3 |
| 68 | San José | 07-05-2026 16:45 | 12,9 | 71 | 0 | 0 | 216 | 42 | 1027,2 |
| 67 | San José | 07-05-2026 16:30 | 13,3 | 71 | 0 | 0 | 226 | 63 | 1027,3 |
| 66 | San José | 07-05-2026 16:15 | 13,7 | 70 | 0 | 0 | 234 | 88 | 1027,4 |
| 65 | San José | 07-05-2026 16:00 | 13,9 | 69 | 0 | 0 | 226 | 130 | 1027,7 |
| 64 | San José | 07-05-2026 15:45 | 14,1 | 69 | 0 | 0 | 220 | 156 | 1027,8 |
| 63 | San José | 07-05-2026 15:30 | 14,2 | 71 | 0 | 0 | 180 | 190 | 1027,8 |
| 62 | San José | 07-05-2026 15:15 | 14,1 | 71 | 0 | 0 | 145 | 192 | 1027,4 |
| 61 | San José | 07-05-2026 15:00 | 13,9 | 69 | 0 | 0 | 237 | 69 | 1027,4 |
| 60 | San José | 07-05-2026 14:45 | 14,1 | 70 | 0 | 0 | 151 | 179 | 1027,4 |
| 59 | San José | 07-05-2026 14:30 | 14,3 | 70 | 0 | 0 | 140 | 42 | 1027,6 |
| 58 | San José | 07-05-2026 14:15 | 14,4 | 71 | 0 | 0 | 171 | 62 | 1028 |
| 57 | San José | 07-05-2026 14:00 | 14,8 | 73 | 0 | 0 | 229 | 601 | 1027,8 |
| 56 | San José | 07-05-2026 13:45 | 14,3 | 74 | 0 | 0 | 231 | 573 | 1027,9 |
| 55 | San José | 07-05-2026 13:30 | 13,2 | 77 | 0 | 0 | 185 | 596 | 1028 |
| 54 | San José | 07-05-2026 13:15 | 13,2 | 77 | 0 | 0 | 185 | 596 | 1028 |
| 53 | San José | 07-05-2026 13:00 | 12,6 | 77 | 0 | 0 | 185 | 601 | 1028,1 |
| 52 | San José | 07-05-2026 12:45 | 12,6 | 79 | 0 | 0 | 45 | 610 | 1028,6 |
| 51 | San José | 07-05-2026 12:30 | 11,8 | 79 | 0 | 0 | 170 | 327 | 1029 |
| 50 | San José | 07-05-2026 12:15 | 11,8 | 81 | 0 | 0 | 151 | 696 | 1029,1 |
| 49 | San José | 07-05-2026 12:00 | 11,4 | 82 | 0 | 0 | 101 | 766 | 1029,3 |
| 48 | San José | 07-05-2026 11:45 | 10,9 | 84 | 0 | 0 | 192 | 214 | 1029,5 |
| 47 | San José | 07-05-2026 11:30 | 10,5 | 85 | 0 | 0 | 192 | 287 | 1029,4 |
| 46 | San José | 07-05-2026 11:15 | 10 | 88 | 0 | 0 | 153 | 232 | 1029,5 |
| 45 | San José | 07-05-2026 11:00 | 9,6 | 91 | 0 | 0 | 237 | 232 | 1029,4 |
| 44 | San José | 07-05-2026 10:45 | 9,2 | 91 | 0 | 0 | 237 | 155 | 1029,4 |
| 43 | San José | 07-05-2026 10:30 | 9,1 | 93 | 0 | 0 | 237 | 142 | 1029,3 |
| 42 | San José | 07-05-2026 10:15 | 8,7 | 94 | 0 | 0 | 237 | 149 | 1029,2 |
| 41 | San José | 07-05-2026 10:00 | 8,3 | 94 | 0 | 0 | 228 | 142 | 1029,4 |
| 40 | San José | 07-05-2026 09:45 | 8,2 | 94 | 0 | 0 | 228 | 74 | 1029,6 |
| 39 | San José | 07-05-2026 09:30 | 8,2 | 94 | 0 | 0 | 208 | 86 | 1029,5 |
| 38 | San José | 07-05-2026 09:15 | 8,3 | 94 | 0 | 0 | 208 | 77 | 1029 |
| 37 | San José | 07-05-2026 09:00 | 8,2 | 94 | 0 | 0 | 124 | 69 | 1028,9 |
| 36 | San José | 07-05-2026 08:45 | 7,9 | 94 | 0 | 0 | 122 | 47 | 1029 |
| 35 | San José | 07-05-2026 08:30 | 7,9 | 94 | 0 | 0 | 122 | 42 | 1028,9 |
| 34 | San José | 07-05-2026 08:15 | 7,9 | 93 | 0 | 0 | 122 | 23 | 1028,8 |
| 33 | San José | 07-05-2026 08:00 | 8 | 94 | 0 | 0 | 122 | 12 | 1028,6 |
| 32 | San José | 07-05-2026 07:45 | 7,9 | 93 | 0 | 0 | 122 | 11 | 1028 |
| 31 | San José | 07-05-2026 07:30 | 8,1 | 93 | 0 | 0 | 266 | 0 | 1028 |
| 30 | San José | 07-05-2026 07:15 | 8,2 | 93 | 0 | 0 | 266 | 0 | 1027,9 |
| 29 | San José | 07-05-2026 07:00 | 8,2 | 93 | 0 | 0 | 266 | 0 | 1027,9 |
| 28 | San José | 07-05-2026 06:45 | 8,2 | 93 | 0 | 0 | 266 | 0 | 1027,8 |
| 27 | San José | 07-05-2026 06:30 | 8,3 | 93 | 0 | 0 | 266 | 0 | 1027,8 |
| 26 | San José | 07-05-2026 06:15 | 8,4 | 93 | 0 | 0 | 266 | 0 | 1027,7 |
| 25 | San José | 07-05-2026 06:00 | 8,4 | 93 | 0 | 0 | 266 | 0 | 1027,5 |
| 24 | San José | 07-05-2026 05:45 | 8,5 | 93 | 0 | 0 | 266 | 0 | 1027,3 |
| 23 | San José | 07-05-2026 05:30 | 8,6 | 93 | 0 | 0 | 266 | 0 | 1027,1 |
| 22 | San José | 07-05-2026 05:15 | 8,6 | 93 | 0 | 0 | 267 | 0 | 1027 |
| 21 | San José | 07-05-2026 05:00 | 8,7 | 93 | 0 | 0 | 267 | 0 | 1027 |
| 20 | San José | 07-05-2026 04:45 | 8,7 | 93 | 0 | 0 | 218 | 0 | 1026,8 |
| 19 | San José | 07-05-2026 04:30 | 8,7 | 93 | 0 | 0 | 218 | 0 | 1026,4 |
| 18 | San José | 07-05-2026 04:15 | 8,7 | 93 | 0 | 0 | 218 | 0 | 1026,3 |
| 17 | San José | 07-05-2026 04:00 | 8,7 | 92 | 0 | 0 | 218 | 0 | 1026,3 |
| 16 | San José | 07-05-2026 03:45 | 8,8 | 92 | 0 | 0 | 218 | 0 | 1026 |
| 15 | San José | 07-05-2026 03:30 | 9 | 92 | 0 | 0 | 218 | 0 | 1026,1 |
| 14 | San José | 07-05-2026 03:15 | 9,1 | 92 | 0 | 0 | 218 | 0 | 1026,1 |
| 13 | San José | 07-05-2026 03:00 | 9,1 | 92 | 0 | 0 | 218 | 0 | 1026,1 |
| 12 | San José | 07-05-2026 02:45 | 9,2 | 92 | 0 | 0 | 218 | 0 | 1026,3 |
| 11 | San José | 07-05-2026 02:30 | 9,3 | 92 | 0 | 0 | 217 | 0 | 1025,8 |
| 10 | San José | 07-05-2026 02:15 | 9,3 | 92 | 0 | 0 | 217 | 0 | 1025,8 |
| 9 | San José | 07-05-2026 02:00 | 9,3 | 92 | 0 | 0 | 217 | 0 | 1025,5 |
| 8 | San José | 07-05-2026 01:45 | 9,4 | 92 | 0 | 0 | 217 | 0 | 1025,4 |
| 7 | San José | 07-05-2026 01:30 | 9,5 | 92 | 0 | 0 | 218 | 0 | 1025,3 |
| 6 | San José | 07-05-2026 01:15 | 9,6 | 93 | 0 | 0 | 218 | 0 | 1025 |
| 5 | San José | 07-05-2026 01:00 | 9,7 | 92 | 0 | 0 | 218 | 0 | 1025,1 |
| 4 | San José | 07-05-2026 00:45 | 9,7 | 92 | 0 | 0 | 218 | 0 | 1024,9 |
| 3 | San José | 07-05-2026 00:30 | 9,8 | 92 | 0 | 0 | 218 | 0 | 1025 |
| 2 | San José | 07-05-2026 00:15 | 9,9 | 92 | 0 | 0 | 218 | 0 | 1025 |
| 1 | San José | 07-05-2026 00:00 | 10 | 92 | 0 | 0 | 220 | 0 | 1024,9 |